,,Stat5,,Stat1,,Stat2,,Stat3,,Stat4,,Wind1,,Wind1,
time,status,PA1M_AVG,status,PR1M_SUM,status,RH1M_AVG,status,SR1M_AVG,status,TA1M_AVG,status,W1dAve1m,status,W1sAve1m,
2002-03-09, 00:00:01,VALID,920.248,VALID,0,VALID,91.6547,VALID,0.0509425,VALID,20.8518,VALID,113,VALID,0.608964,
2002-03-09, 00:01:00,VALID,920.248,VALID,0,VALID,91.6242,VALID,0.0169808,VALID,20.8419,VALID,129,VALID,0.996199,
2002-03-09, 00:02:00,VALID,920.225,VALID,0,VALID,91.7552,VALID,0,VALID,20.8389,VALID,80,VALID,0.60178,
2002-03-09, 00:03:00,VALID,920.214,VALID,0,VALID,91.8925,VALID,0.0339617,VALID,20.8292,VALID,115,VALID,0.358347,
2002-03-09, 00:04:00,VALID,920.202,VALID,0,VALID,92.0095,VALID,0.0339617,VALID,20.8093,VALID,113,VALID,0.343967,
2002-03-09, 00:05:00,VALID,920.193,VALID,0,VALID,92.1316,VALID,0,VALID,20.8001,VALID,115,VALID,0.271793,
2002-03-09, 00:06:00,VALID,920.18,VALID,0,VALID,92.2168,VALID,0,VALID,20.7643,VALID,96,VALID,0.222973,
2002-03-09, 00:07:00,VALID,920.165,VALID,0,VALID,92.1761,VALID,0,VALID,20.7616,VALID,117,VALID,1.01451,
2002-03-09, 00:08:00,VALID,920.163,VALID,0,VALID,92.1583,VALID,0.0509425,VALID,20.7514,VALID,104,VALID,0.645232,
2002-03-09, 00:09:00,VALID,920.163,VALID,0,VALID,92.0782,VALID,0.0169808,VALID,20.7449,VALID,78,VALID,0.501894,
2002-03-09, 00:10:00,VALID,920.169,VALID,0,VALID,92.096,VALID,-0.0339617,VALID,20.739,VALID,87,VALID,0.378125,
2002-03-09, 00:11:00,VALID,920.158,VALID,0,VALID,92.2015,VALID,-0.101885,VALID,20.747,VALID,98,VALID,0.529772,
2002-03-09, 00:12:00,VALID,920.147,VALID,0,VALID,92.2918,VALID,-0.0679233,VALID,20.7433,VALID,138,VALID,0.20777,
2002-03-09, 00:13:00,VALID,920.127,VALID,0,VALID,92.3884,VALID,-0.0849042,VALID,20.7465,VALID,141,VALID,0.483141,
2002-03-09, 00:14:00,VALID,920.122,VALID,0,VALID,92.5067,VALID,-0.101885,VALID,20.7279,VALID,155,VALID,0.68316,
2002-03-09, 00:15:00,VALID,920.101,VALID,0,VALID,92.6656,VALID,-0.101885,VALID,20.6986,VALID,170,VALID,0.875206,
2002-03-09, 00:16:00,VALID,920.094,VALID,0,VALID,92.8653,VALID,-0.0509425,VALID,20.6787,VALID,162,VALID,0.883446,
2002-03-09, 00:17:00,VALID,920.067,VALID,0,VALID,93.0573,VALID,-0.0679233,VALID,20.6622,VALID,161,VALID,1.1705,
2002-03-09, 00:18:00,VALID,920.05,VALID,0,VALID,93.2073,VALID,-0.0849042,VALID,20.6399,VALID,128,VALID,0.428454,
2002-03-09, 00:19:00,VALID,920.053,VALID,0,VALID,93.332,VALID,-0.0679233,VALID,20.624,VALID,102,VALID,0.129645,
2002-03-09, 00:20:00,VALID,920.022,VALID,0,VALID,93.2633,VALID,-0.101885,VALID,20.6108,VALID,139,VALID,0.684827,
2002-03-09, 00:21:00,VALID,920.018,VALID,0,VALID,93.2442,VALID,-0.0849042,VALID,20.6208,VALID,128,VALID,0.377956,
2002-03-09, 00:22:00,VALID,920.013,VALID,0,VALID,93.2124,VALID,-0.0849042,VALID,20.6208,VALID,155,VALID,0.820536,
2002-03-09, 00:23:00,VALID,920.023,VALID,0,VALID,93.2404,VALID,-0.101885,VALID,20.6275,VALID,163,VALID,0.966546,
2002-03-09, 00:24:00,VALID,920.025,VALID,0,VALID,93.2213,VALID,-0.101885,VALID,20.6369,VALID,157,VALID,0.81392,
2002-03-09, 00:25:00,VALID,920.027,VALID,0,VALID,93.0929,VALID,-0.0339617,VALID,20.6388,VALID,140,VALID,0.715179,
2002-03-09, 00:26:00,VALID,920.015,VALID,0,VALID,93.07,VALID,0.0169808,VALID,20.6515,VALID,137,VALID,0.442145,
2002-03-09, 00:27:00,VALID,920.009,VALID,0,VALID,92.9848,VALID,0,VALID,20.654,VALID,184,VALID,0.303421,
2002-03-09, 00:28:00,VALID,919.979,VALID,0,VALID,92.864,VALID,0,VALID,20.6669,VALID,166,VALID,0.886308,
2002-03-09, 00:29:00,VALID,919.963,VALID,0,VALID,92.6478,VALID,0.0169808,VALID,20.687,VALID,141,VALID,1.06836,
2002-03-09, 00:30:00,VALID,919.943,VALID,0,VALID,92.6453,VALID,0.0169808,VALID,20.7196,VALID,147,VALID,0.544408,
2002-03-09, 00:31:00,VALID,919.935,VALID,0,VALID,92.3757,VALID,0.0169808,VALID,20.7186,VALID,153,VALID,1.34924,
2002-03-09, 00:32:00,VALID,919.912,VALID,0,VALID,92.3477,VALID,0.0169808,VALID,20.7449,VALID,153,VALID,0.735294,
2002-03-09, 00:33:00,VALID,919.903,VALID,0,VALID,92.3821,VALID,0.0169808,VALID,20.7546,VALID,162,VALID,0.593544,
2002-03-09, 00:34:00,VALID,919.885,VALID,0,VALID,92.4978,VALID,0.0169808,VALID,20.7544,VALID,153,VALID,1.21896,
2002-03-09, 00:35:00,VALID,919.885,VALID,0,VALID,92.6555,VALID,0.0169808,VALID,20.7549,VALID,143,VALID,0.770354,
2002-03-09, 00:36:00,VALID,919.871,VALID,0,VALID,92.8602,VALID,0.0339617,VALID,20.725,VALID,149,VALID,0.738176,
2002-03-09, 00:37:00,VALID,919.871,VALID,0,VALID,93.1082,VALID,0.0169808,VALID,20.7062,VALID,150,VALID,0.94442,
2002-03-09, 00:38:00,VALID,919.851,VALID,0,VALID,93.3078,VALID,0,VALID,20.6709,VALID,144,VALID,1.02564,
2002-03-09, 00:39:00,VALID,919.833,VALID,0,VALID,93.4769,VALID,0,VALID,20.6284,VALID,142,VALID,0.838778,
2002-03-09, 00:40:00,VALID,919.807,VALID,0,VALID,93.6104,VALID,0,VALID,20.602,VALID,137,VALID,0.928571,
2002-03-09, 00:41:00,VALID,919.788,VALID,0,VALID,93.7821,VALID,0.0169808,VALID,20.5928,VALID,70,VALID,1.15625,
2002-03-09, 00:42:00,VALID,919.776,VALID,0,VALID,93.7185,VALID,0,VALID,20.5613,VALID,92,VALID,1.28991,
2002-03-09, 00:43:00,VALID,919.772,VALID,0,VALID,93.7312,VALID,0,VALID,20.5541,VALID,123,VALID,1.79585,
2002-03-09, 00:44:00,VALID,919.759,VALID,0,VALID,93.6626,VALID,0.0169808,VALID,20.5672,VALID,143,VALID,1.55794,
2002-03-09, 00:45:00,VALID,919.709,VALID,0,VALID,93.599,VALID,0.0169808,VALID,20.5899,VALID,148,VALID,1.59313,
2002-03-09, 00:46:00,VALID,919.678,VALID,0,VALID,93.5456,VALID,0.0169808,VALID,20.6259,VALID,117,VALID,1.35811,
2002-03-09, 00:47:00,VALID,919.68,VALID,0,VALID,93.585,VALID,0,VALID,20.6324,VALID,116,VALID,1.1636,
2002-03-09, 00:48:00,VALID,919.674,VALID,0,VALID,93.7007,VALID,0.0169808,VALID,20.6227,VALID,101,VALID,0.621916,
2002-03-09, 00:49:00,VALID,919.664,VALID,0,VALID,93.7719,VALID,0,VALID,20.613,VALID,138,VALID,1.56926,
2002-03-09, 00:50:00,VALID,919.628,VALID,0,VALID,93.7694,VALID,-0.0339617,VALID,20.6065,VALID,133,VALID,1.64741,
2002-03-09, 00:51:00,VALID,919.612,VALID,0,VALID,93.8075,VALID,0,VALID,20.6227,VALID,129,VALID,1.93095,
2002-03-09, 00:52:00,VALID,919.59,VALID,0,VALID,93.7999,VALID,0.0169808,VALID,20.6122,VALID,148,VALID,1.57143,
2002-03-09, 00:53:00,VALID,919.567,VALID,0,VALID,93.5189,VALID,0.0169808,VALID,20.616,VALID,112,VALID,1.55409,
2002-03-09, 00:54:00,VALID,919.57,VALID,0,VALID,93.6906,VALID,0,VALID,20.6319,VALID,115,VALID,1.74503,
2002-03-09, 00:55:00,VALID,919.555,VALID,0,VALID,93.8139,VALID,0,VALID,20.6222,VALID,113,VALID,1.55469,
2002-03-09, 00:56:00,VALID,919.54,VALID,0,VALID,93.8902,VALID,0,VALID,20.6125,VALID,127,VALID,1.79117,
2002-03-09, 00:57:00,VALID,919.533,VALID,0,VALID,93.716,VALID,0,VALID,20.6028,VALID,141,VALID,1.86381,
2002-03-09, 00:58:01,VALID,919.529,VALID,0,VALID,93.3345,VALID,0,VALID,20.6257,VALID,147,VALID,1.82381,
2002-03-09, 00:59:00,VALID,919.531,VALID,0,VALID,93.0662,VALID,0.0169808,VALID,20.6642,VALID,148,VALID,1.88759,
2002-03-09, 01:00:00,VALID,919.529,VALID,0,VALID,93.2124,VALID,0,VALID,20.7029,VALID,101,VALID,1.31764,
2002-03-09, 01:01:00,VALID,919.519,VALID,0,VALID,93.4413,VALID,0,VALID,20.693,VALID,126,VALID,1.05764,
2002-03-09, 01:02:00,VALID,919.512,VALID,0,VALID,93.6944,VALID,0.0169808,VALID,20.6679,VALID,139,VALID,1.19072,
2002-03-09, 01:03:00,VALID,919.501,VALID,0,VALID,93.8075,VALID,0,VALID,20.6383,VALID,131,VALID,1.97738,
2002-03-09, 01:04:00,VALID,919.487,VALID,0,VALID,93.8826,VALID,0.0169808,VALID,20.6092,VALID,131,VALID,1.33573,
2002-03-09, 01:05:00,VALID,919.469,VALID,0,VALID,93.9461,VALID,0,VALID,20.5933,VALID,148,VALID,1.67558,
2002-03-09, 01:06:00,VALID,919.456,VALID,0,VALID,93.8876,VALID,0,VALID,20.5896,VALID,147,VALID,1.94721,
2002-03-09, 01:07:00,VALID,919.427,VALID,0,VALID,93.7363,VALID,0.0169808,VALID,20.5993,VALID,141,VALID,1.51563,
2002-03-09, 01:08:01,VALID,919.448,VALID,0,VALID,93.6499,VALID,0.0169808,VALID,20.6219,VALID,120,VALID,1.1875,
2002-03-09, 01:09:00,VALID,919.432,VALID,0,VALID,93.5647,VALID,0.0169808,VALID,20.6216,VALID,136,VALID,1.09138,
2002-03-09, 01:10:00,VALID,919.422,VALID,0,VALID,93.5532,VALID,0.0339617,VALID,20.6313,VALID,105,VALID,0.938616,
2002-03-09, 01:11:00,VALID,919.393,VALID,0,VALID,93.5659,VALID,0.0509425,VALID,20.6311,VALID,116,VALID,1.25612,
2002-03-09, 01:12:00,VALID,919.377,VALID,0,VALID,93.2175,VALID,0.0679233,VALID,20.6313,VALID,154,VALID,1.7633,
2002-03-09, 01:13:01,VALID,919.347,VALID,0,VALID,92.9136,VALID,0.0339617,VALID,20.6502,VALID,137,VALID,1.12192,
2002-03-09, 01:14:00,VALID,919.346,VALID,0,VALID,92.8933,VALID,0,VALID,20.6927,VALID,119,VALID,1.4872,
2002-03-09, 01:15:00,VALID,919.352,VALID,0,VALID,92.8042,VALID,0,VALID,20.7059,VALID,124,VALID,1.32052,
2002-03-09, 01:16:00,VALID,919.329,VALID,0,VALID,92.8373,VALID,0.0339617,VALID,20.7156,VALID,140,VALID,1.30722,
2002-03-09, 01:17:00,VALID,919.304,VALID,0,VALID,92.9072,VALID,0,VALID,20.7062,VALID,141,VALID,0.951172,
2002-03-09, 01:18:00,VALID,919.304,VALID,0,VALID,92.9339,VALID,0,VALID,20.7029,VALID,136,VALID,0.868627,
2002-03-09, 01:19:00,VALID,919.295,VALID,0,VALID,92.9098,VALID,0.0169808,VALID,20.6994,VALID,107,VALID,1.37986,
2002-03-09, 01:20:00,VALID,919.282,VALID,0,VALID,92.9823,VALID,0,VALID,20.6994,VALID,126,VALID,0.976974,
2002-03-09, 01:21:00,VALID,919.269,VALID,0,VALID,93.0395,VALID,0.0339617,VALID,20.6903,VALID,118,VALID,1.2992,
2002-03-09, 01:22:00,VALID,919.256,VALID,0,VALID,93.028,VALID,0,VALID,20.6798,VALID,120,VALID,1.12009,
2002-03-09, 01:23:01,VALID,919.241,VALID,0,VALID,93.0446,VALID,0.0169808,VALID,20.6599,VALID,112,VALID,1.1266,
2002-03-09, 01:24:00,VALID,919.227,VALID,0,VALID,93.0064,VALID,0,VALID,20.6739,VALID,110,VALID,1.13281,
2002-03-09, 01:25:00,VALID,919.228,VALID,0,VALID,93.0675,VALID,0.0849042,VALID,20.6693,VALID,117,VALID,1.08728,
2002-03-09, 01:26:00,VALID,919.228,VALID,0,VALID,93.0459,VALID,0.152827,VALID,20.6696,VALID,127,VALID,1.00507,
2002-03-09, 01:27:00,VALID,919.222,VALID,0,VALID,92.9581,VALID,0.101885,VALID,20.6723,VALID,124,VALID,1.22994,
2002-03-09, 01:28:01,VALID,919.209,VALID,0,VALID,92.6516,VALID,0.101885,VALID,20.6688,VALID,87,VALID,1.12582,
2002-03-09, 01:29:00,VALID,919.204,VALID,0,VALID,92.775,VALID,0.101885,VALID,20.6984,VALID,101,VALID,1.51085,
2002-03-09, 01:30:00,VALID,919.209,VALID,0,VALID,92.7368,VALID,0.135847,VALID,20.6976,VALID,129,VALID,1.63919,
2002-03-09, 01:31:00,VALID,919.185,VALID,0,VALID,92.672,VALID,0.118866,VALID,20.7111,VALID,135,VALID,1.21706,
2002-03-09, 01:32:00,VALID,919.177,VALID,0,VALID,92.6033,VALID,0.152827,VALID,20.7175,VALID,130,VALID,1.34582,
2002-03-09, 01:33:00,VALID,919.168,VALID,0,VALID,92.5982,VALID,0.101885,VALID,20.7275,VALID,106,VALID,1.57257,
2002-03-09, 01:34:00,VALID,919.171,VALID,0,VALID,92.5347,VALID,0.101885,VALID,20.7339,VALID,127,VALID,1.79983,
2002-03-09, 01:35:00,VALID,919.158,VALID,0,VALID,92.3783,VALID,0.101885,VALID,20.7339,VALID,128,VALID,1.80037,
2002-03-09, 01:36:01,VALID,919.142,VALID,0,VALID,91.2898,VALID,0.118866,VALID,20.7754,VALID,92,VALID,1.88514,
2002-03-09, 01:37:00,VALID,919.128,VALID,0,VALID,91.1651,VALID,0.101885,VALID,20.8729,VALID,130,VALID,1.30156,
2002-03-09, 01:38:01,VALID,919.128,VALID,0,VALID,91.2224,VALID,0.118866,VALID,20.9047,VALID,142,VALID,0.878005,
2002-03-09, 01:39:00,VALID,919.135,VALID,0,VALID,91.4144,VALID,0.135847,VALID,20.9114,VALID,140,VALID,0.919744,
2002-03-09, 01:40:00,VALID,919.132,VALID,0,VALID,91.492,VALID,0.0339617,VALID,20.8963,VALID,162,VALID,1.61518,
2002-03-09, 01:41:00,VALID,919.124,VALID,0,VALID,91.8442,VALID,0,VALID,20.8944,VALID,96,VALID,0.709671,
2002-03-09, 01:42:00,VALID,919.131,VALID,0,VALID,92.0031,VALID,0,VALID,20.8583,VALID,140,VALID,1.08214,
2002-03-09, 01:43:01,VALID,919.129,VALID,0,VALID,91.9777,VALID,0.0169808,VALID,20.8187,VALID,137,VALID,1.42907,
2002-03-09, 01:44:00,VALID,919.1,VALID,0,VALID,91.9866,VALID,0.0339617,VALID,20.823,VALID,146,VALID,1.82378,
2002-03-09, 01:45:00,VALID,919.084,VALID,0,VALID,92.0019,VALID,0,VALID,20.8158,VALID,150,VALID,0.971628,
2002-03-09, 01:46:00,VALID,919.08,VALID,0,VALID,91.9446,VALID,0.0339617,VALID,20.8394,VALID,132,VALID,1.47086,
2002-03-09, 01:47:01,VALID,919.067,VALID,0,VALID,92.1176,VALID,0,VALID,20.826,VALID,132,VALID,0.733915,
2002-03-09, 01:48:00,VALID,919.067,VALID,0,VALID,92.0743,VALID,0,VALID,20.823,VALID,116,VALID,1.57998,
2002-03-09, 01:49:00,VALID,919.045,VALID,0,VALID,91.3928,VALID,0.0169808,VALID,20.8101,VALID,145,VALID,1.63302,
2002-03-09, 01:50:00,VALID,919.018,VALID,0,VALID,91.0736,VALID,0.0169808,VALID,20.8416,VALID,123,VALID,1.47595,
2002-03-09, 01:51:01,VALID,919.013,VALID,0,VALID,90.7875,VALID,0,VALID,20.9033,VALID,125,VALID,1.24177,
2002-03-09, 01:52:00,VALID,919.002,VALID,0,VALID,90.7849,VALID,0.0169808,VALID,20.9488,VALID,91,VALID,1.31853,
2002-03-09, 01:53:01,VALID,918.986,VALID,0,VALID,90.7926,VALID,0.0339617,VALID,20.9744,VALID,142,VALID,0.791667,
2002-03-09, 01:54:00,VALID,918.965,VALID,0,VALID,90.8167,VALID,0,VALID,20.9647,VALID,117,VALID,1.22917,
2002-03-09, 01:55:00,VALID,918.961,VALID,0,VALID,90.6196,VALID,0.0169808,VALID,20.9579,VALID,110,VALID,1.18571,
2002-03-09, 01:56:00,VALID,918.943,VALID,0,VALID,90.3653,VALID,0.0339617,VALID,20.9706,VALID,76,VALID,0.983953,
2002-03-09, 01:57:00,VALID,918.945,VALID,0,VALID,90.4441,VALID,0,VALID,20.9873,VALID,130,VALID,1.08298,
2002-03-09, 01:58:01,VALID,918.961,VALID,0,VALID,90.57,VALID,0.0339617,VALID,21.0034,VALID,135,VALID,1.02282,
2002-03-09, 01:59:00,VALID,918.953,VALID,0,VALID,90.6743,VALID,0.0339617,VALID,21.0037,VALID,136,VALID,0.814887,
2002-03-09, 02:00:00,VALID,918.965,VALID,0,VALID,90.6336,VALID,0.0339617,VALID,20.98,VALID,122,VALID,0.820313,
2002-03-09, 02:01:00,VALID,918.969,VALID,0,VALID,90.6794,VALID,0.0339617,VALID,20.9771,VALID,117,VALID,0.948902,
2002-03-09, 02:02:00,VALID,918.982,VALID,0,VALID,90.6451,VALID,0,VALID,20.9579,VALID,81,VALID,0.817785,
2002-03-09, 02:03:00,VALID,918.979,VALID,0,VALID,90.8625,VALID,0.0169808,VALID,20.9612,VALID,102,VALID,0.990954,
2002-03-09, 02:04:00,VALID,918.964,VALID,0,VALID,91.0456,VALID,0,VALID,20.9383,VALID,130,VALID,1.03737,
2002-03-09, 02:05:00,VALID,918.975,VALID,0,VALID,91.2542,VALID,0.0169808,VALID,20.9124,VALID,116,VALID,0.868215,
2002-03-09, 02:06:01,VALID,918.969,VALID,0,VALID,91.4144,VALID,0.0169808,VALID,20.8931,VALID,103,VALID,0.675465,
2002-03-09, 02:07:00,VALID,918.959,VALID,0,VALID,91.0176,VALID,0,VALID,20.8804,VALID,135,VALID,0.989732,
2002-03-09, 02:08:01,VALID,918.944,VALID,0,VALID,90.9401,VALID,0,VALID,20.8965,VALID,149,VALID,0.633814,
2002-03-09, 02:09:00,VALID,918.931,VALID,0,VALID,90.7481,VALID,0.0169808,VALID,20.8965,VALID,145,VALID,0.880919,
2002-03-09, 02:10:00,VALID,918.926,VALID,0,VALID,90.6044,VALID,-0.0339617,VALID,20.9302,VALID,140,VALID,1.02768,
2002-03-09, 02:11:00,VALID,918.92,VALID,0,VALID,90.6946,VALID,-0.0849042,VALID,20.9628,VALID,141,VALID,0.793497,
2002-03-09, 02:12:00,VALID,918.916,VALID,0,VALID,91.052,VALID,-0.0849042,VALID,20.9692,VALID,141,VALID,1.0853,
2002-03-09, 02:13:01,VALID,918.911,VALID,0,VALID,91.3851,VALID,-0.0679233,VALID,20.9463,VALID,160,VALID,1.32052,
2002-03-09, 02:14:00,VALID,918.895,VALID,0,VALID,91.5759,VALID,-0.101885,VALID,20.9049,VALID,153,VALID,1.37695,
2002-03-09, 02:15:00,VALID,918.896,VALID,0,VALID,91.9128,VALID,-0.101885,VALID,20.8758,VALID,152,VALID,1.33285,
2002-03-09, 02:16:00,VALID,918.897,VALID,0,VALID,92.349,VALID,-0.0849042,VALID,20.8564,VALID,160,VALID,1.356,
2002-03-09, 02:17:01,VALID,918.893,VALID,0,VALID,92.6962,VALID,-0.101885,VALID,20.8017,VALID,149,VALID,1.47978,
2002-03-09, 02:18:00,VALID,918.891,VALID,0,VALID,92.9683,VALID,-0.101885,VALID,20.743,VALID,151,VALID,1.44572,
2002-03-09, 02:19:00,VALID,918.882,VALID,0,VALID,93.1349,VALID,-0.101885,VALID,20.701,VALID,147,VALID,1.35156,
2002-03-09, 02:20:00,VALID,918.865,VALID,0,VALID,93.3434,VALID,-0.0679233,VALID,20.6719,VALID,155,VALID,1.57627,
2002-03-09, 02:21:01,VALID,918.846,VALID,0,VALID,93.5036,VALID,-0.0509425,VALID,20.6391,VALID,154,VALID,1.3959,
2002-03-09, 02:22:00,VALID,918.826,VALID,0,VALID,93.5481,VALID,-0.0849042,VALID,20.6237,VALID,155,VALID,1.07299,
2002-03-09, 02:23:01,VALID,918.811,VALID,0,VALID,93.7325,VALID,-0.101885,VALID,20.6078,VALID,142,VALID,1.00541,
2002-03-09, 02:24:00,VALID,918.8,VALID,0,VALID,93.6829,VALID,-0.101885,VALID,20.5979,VALID,147,VALID,1.58475,
2002-03-09, 02:25:00,VALID,918.781,VALID,0,VALID,93.5685,VALID,-0.0339617,VALID,20.5866,VALID,148,VALID,1.28571,
2002-03-09, 02:26:00,VALID,918.759,VALID,0,VALID,93.4871,VALID,0,VALID,20.5893,VALID,144,VALID,1.60642,
2002-03-09, 02:27:00,VALID,918.749,VALID,0,VALID,93.4718,VALID,0,VALID,20.6189,VALID,125,VALID,1.07622,
2002-03-09, 02:28:01,VALID,918.733,VALID,0,VALID,93.5329,VALID,0.0169808,VALID,20.6249,VALID,143,VALID,0.54523,
2002-03-09, 02:29:00,VALID,918.713,VALID,0,VALID,93.5138,VALID,0.0339617,VALID,20.6149,VALID,119,VALID,0.917752,
2002-03-09, 02:30:00,VALID,918.692,VALID,0,VALID,93.4489,VALID,0,VALID,20.6189,VALID,139,VALID,0.832237,
2002-03-09, 02:31:01,VALID,918.693,VALID,0,VALID,93.2455,VALID,0.0339617,VALID,20.6149,VALID,148,VALID,1.67441,
2002-03-09, 02:32:00,VALID,918.666,VALID,0,VALID,93.0662,VALID,0.0509425,VALID,20.641,VALID,152,VALID,1.11558,
2002-03-09, 02:33:01,VALID,918.656,VALID,0,VALID,93.028,VALID,0.0509425,VALID,20.6642,VALID,144,VALID,0.82134,
2002-03-09, 02:34:00,VALID,918.652,VALID,0,VALID,93.0535,VALID,0.0509425,VALID,20.6865,VALID,121,VALID,0.723184,
2002-03-09, 02:35:00,VALID,918.633,VALID,0,VALID,92.9327,VALID,0.0339617,VALID,20.693,VALID,143,VALID,1.62541,
2002-03-09, 02:36:01,VALID,918.615,VALID,0,VALID,92.9022,VALID,0.0169808,VALID,20.6895,VALID,144,VALID,1.07179,
2002-03-09, 02:37:01,VALID,918.609,VALID,0,VALID,92.8704,VALID,0,VALID,20.6992,VALID,143,VALID,1.40379,
2002-03-09, 02:38:01,VALID,918.597,VALID,0,VALID,92.953,VALID,0.0339617,VALID,20.7124,VALID,145,VALID,1.51703,
2002-03-09, 02:39:01,VALID,918.589,VALID,0,VALID,93.0039,VALID,0.0339617,VALID,20.7256,VALID,151,VALID,1.44792,
2002-03-09, 02:40:00,VALID,918.567,VALID,0,VALID,93.0039,VALID,0.0339617,VALID,20.7191,VALID,146,VALID,2.03996,
2002-03-09, 02:41:01,VALID,918.554,VALID,0,VALID,93.1031,VALID,0.0509425,VALID,20.7159,VALID,149,VALID,1.52956,
2002-03-09, 02:42:00,VALID,918.543,VALID,0,VALID,93.1374,VALID,0.0169808,VALID,20.7024,VALID,151,VALID,1.83467,
2002-03-09, 02:43:01,VALID,918.539,VALID,0,VALID,93.248,VALID,0.0679233,VALID,20.693,VALID,152,VALID,1.375,
2002-03-09, 02:44:00,VALID,918.514,VALID,0,VALID,93.3523,VALID,0.0849042,VALID,20.6761,VALID,149,VALID,1.72504,
2002-03-09, 02:45:00,VALID,918.515,VALID,0,VALID,93.4858,VALID,0.0509425,VALID,20.6437,VALID,130,VALID,1.5366,
2002-03-09, 02:46:01,VALID,918.511,VALID,0,VALID,93.6537,VALID,0.0679233,VALID,20.6244,VALID,140,VALID,1.19658,
2002-03-09, 02:47:01,VALID,918.502,VALID,0,VALID,93.7897,VALID,0.0679233,VALID,20.6284,VALID,145,VALID,1.28699,
2002-03-09, 02:48:01,VALID,918.515,VALID,0,VALID,93.847,VALID,0.0169808,VALID,20.6149,VALID,139,VALID,1.5037,
2002-03-09, 02:49:01,VALID,918.494,VALID,0,VALID,93.8686,VALID,0.0169808,VALID,20.6187,VALID,136,VALID,1.28399,
2002-03-09, 02:50:00,VALID,918.501,VALID,0,VALID,93.9144,VALID,0.0679233,VALID,20.6189,VALID,145,VALID,1.38076,
2002-03-09, 02:51:01,VALID,918.503,VALID,0,VALID,93.9894,VALID,0.0849042,VALID,20.6052,VALID,145,VALID,1.90329,
2002-03-09, 02:52:01,VALID,918.487,VALID,0,VALID,94.0911,VALID,0.0509425,VALID,20.5923,VALID,152,VALID,1.98504,
2002-03-09, 02:53:01,VALID,918.493,VALID,0,VALID,94.1865,VALID,0.0169808,VALID,20.5864,VALID,149,VALID,1.5002,
2002-03-09, 02:54:01,VALID,918.485,VALID,0,VALID,94.2704,VALID,0.0849042,VALID,20.5794,VALID,152,VALID,1.59044,
2002-03-09, 02:55:01,VALID,918.476,VALID,0,VALID,94.3861,VALID,0.0169808,VALID,20.5697,VALID,156,VALID,1.67634,
2002-03-09, 02:56:01,VALID,918.469,VALID,0,VALID,94.5107,VALID,0.0679233,VALID,20.557,VALID,148,VALID,2.34987,
2002-03-09, 02:57:01,VALID,918.458,VALID,0,VALID,94.6023,VALID,0.0849042,VALID,20.5406,VALID,153,VALID,2.31588,
2002-03-09, 02:58:01,VALID,918.452,VALID,0,VALID,94.6837,VALID,0.0509425,VALID,20.5242,VALID,148,VALID,1.48849,
2002-03-09, 02:59:01,VALID,918.433,VALID,0,VALID,94.7562,VALID,0.0679233,VALID,20.522,VALID,145,VALID,2.08681,
2002-03-09, 03:00:01,VALID,918.43,VALID,0,VALID,94.7918,VALID,0.0339617,VALID,20.5053,VALID,146,VALID,2.00329,
2002-03-09, 03:01:01,VALID,918.412,VALID,0,VALID,94.7841,VALID,0.0509425,VALID,20.4951,VALID,141,VALID,1.71917,
2002-03-09, 03:02:01,VALID,918.404,VALID,0,VALID,94.7981,VALID,0.0509425,VALID,20.4916,VALID,141,VALID,1.45749,
2002-03-09, 03:03:01,VALID,918.39,VALID,0,VALID,94.8274,VALID,0.0849042,VALID,20.5021,VALID,140,VALID,1.60177,
2002-03-09, 03:04:01,VALID,918.388,VALID,0,VALID,94.8108,VALID,0.0339617,VALID,20.4919,VALID,136,VALID,1.49514,
2002-03-09, 03:05:01,VALID,918.395,VALID,0,VALID,94.6621,VALID,0.0169808,VALID,20.4927,VALID,145,VALID,1.87294,
2002-03-09, 03:06:01,VALID,918.387,VALID,0,VALID,94.4243,VALID,0.0509425,VALID,20.486,VALID,151,VALID,2.32052,
2002-03-09, 03:07:01,VALID,918.393,VALID,0,VALID,94.2475,VALID,0.0509425,VALID,20.5277,VALID,152,VALID,1.67589,
2002-03-09, 03:08:01,VALID,918.4,VALID,0,VALID,94.0898,VALID,0.0679233,VALID,20.56,VALID,144,VALID,1.79407,
2002-03-09, 03:09:00,VALID,918.409,VALID,0,VALID,93.7427,VALID,0.0849042,VALID,20.5724,VALID,153,VALID,2.24645,
2002-03-09, 03:10:00,VALID,918.404,VALID,0,VALID,93.5291,VALID,-0.0339617,VALID,20.5995,VALID,148,VALID,1.28013,
2002-03-09, 03:11:00,VALID,918.416,VALID,0,VALID,93.4566,VALID,-0.0679233,VALID,20.62,VALID,157,VALID,1.95207,
2002-03-09, 03:12:00,VALID,918.414,VALID,0,VALID,93.4261,VALID,-0.0679233,VALID,20.6426,VALID,136,VALID,1.30849,
2002-03-09, 03:13:00,VALID,918.399,VALID,0,VALID,93.4846,VALID,-0.0849042,VALID,20.6388,VALID,152,VALID,1.21012,
2002-03-09, 03:14:00,VALID,918.403,VALID,0,VALID,93.2938,VALID,-0.0849042,VALID,20.6491,VALID,153,VALID,1.7181,
2002-03-09, 03:15:00,VALID,918.387,VALID,0,VALID,93.056,VALID,-0.0339617,VALID,20.6518,VALID,148,VALID,2.22142,
2002-03-09, 03:16:00,VALID,918.365,VALID,0,VALID,93.042,VALID,-0.0339617,VALID,20.6746,VALID,151,VALID,1.88936,
2002-03-09, 03:17:00,VALID,918.364,VALID,0,VALID,92.9263,VALID,-0.0849042,VALID,20.6913,VALID,151,VALID,2.38948,
2002-03-09, 03:18:00,VALID,918.337,VALID,0,VALID,92.7801,VALID,-0.0509425,VALID,20.7107,VALID,143,VALID,2.49692,
2002-03-09, 03:19:00,VALID,918.348,VALID,0,VALID,92.7686,VALID,-0.0339617,VALID,20.7164,VALID,151,VALID,1.67188,
2002-03-09, 03:20:00,VALID,918.344,VALID,0,VALID,92.7648,VALID,-0.0679233,VALID,20.7304,VALID,153,VALID,2.47903,
2002-03-09, 03:21:00,VALID,918.352,VALID,0,VALID,92.6962,VALID,-0.0849042,VALID,20.7201,VALID,147,VALID,1.88725,
2002-03-09, 03:22:00,VALID,918.346,VALID,0,VALID,92.6199,VALID,-0.0679233,VALID,20.7266,VALID,145,VALID,2.24799,
2002-03-09, 03:23:00,VALID,918.346,VALID,0,VALID,92.513,VALID,-0.0509425,VALID,20.736,VALID,144,VALID,2.27103,
2002-03-09, 03:24:00,VALID,918.359,VALID,0,VALID,92.1621,VALID,-0.0169808,VALID,20.749,VALID,142,VALID,2.26989,
2002-03-09, 03:25:00,VALID,918.374,VALID,0,VALID,91.9955,VALID,-0.0169808,VALID,20.7807,VALID,131,VALID,2.55112,
2002-03-09, 03:26:00,VALID,918.373,VALID,0,VALID,91.9726,VALID,0.0339617,VALID,20.8096,VALID,126,VALID,2.19721,
2002-03-09, 03:27:00,VALID,918.367,VALID,0,VALID,91.9421,VALID,0,VALID,20.816,VALID,143,VALID,2.00148,
2002-03-09, 03:28:00,VALID,918.372,VALID,0,VALID,91.9993,VALID,0.0169808,VALID,20.8163,VALID,123,VALID,1.91797,
2002-03-09, 03:29:00,VALID,918.352,VALID,0,VALID,92.0858,VALID,0.0339617,VALID,20.816,VALID,142,VALID,1.49089,
2002-03-09, 03:30:00,VALID,918.374,VALID,0,VALID,92.0133,VALID,0.0339617,VALID,20.8031,VALID,144,VALID,1.9447,
2002-03-09, 03:31:00,VALID,918.362,VALID,0,VALID,92.0871,VALID,0.0169808,VALID,20.7999,VALID,128,VALID,1.30997,
2002-03-09, 03:32:00,VALID,918.377,VALID,0,VALID,92.2308,VALID,0.0169808,VALID,20.8001,VALID,128,VALID,1.27597,
2002-03-09, 03:33:00,VALID,918.383,VALID,0,VALID,92.3516,VALID,0.0169808,VALID,20.7708,VALID,114,VALID,1.15851,